Home > Weather > Jhunjhunu > Past weeks

Flag for India Weather for the Past 2 Weeks in Jhunjhunu, Rajasthan, India

Now
64 °F

Haze.


Feels Like: 64 °F
Forecast: 51 / 76 °F
Wind: 1 mph from North

Location: Jaipur / Sanganer

Current Time: Feb 14, 2016 at 9:41:34 AM

Latest Report: Feb 14, 2016 at 9:00 AM


Visibility: 2 mi

Pressure: 30.09 "Hg

Humidity: 46%

Dew point: 43 °F

Location of JhunjhunuLocation

Historic Weather in Jhunjhunu — Graph

°F

Jhunjhunu Temperature Yesterday

Maximum temperature yesterday: 77 °F (at 3:30 PM)
Minimum temperature yesterday: 57 °F (at 7:00 AM)
Average temperature yesterday: 69 °F

High & Low Weather Summary for the Past Weeks

 TemperatureHumidityPressure
High82 °F (Jan 30, 4:00 PM)83% (Jan 31, 7:00 AM)30.18 "Hg (Jan 31, 7:00 AM)
Low48 °F (Feb 3, 6:00 AM)11% (Feb 11, 3:00 PM)29.80 "Hg (Feb 4, 9:00 PM)
Average66 °F40%30.01 "Hg
* Reported Jan 30 9:00 AM — Feb 14 8:30 AM, Jhunjhunu, Weather by CustomWeather, © 2016

Note: Actual official high and low records may vary slightly from our data, if they occured in-between our weather recording intervals... More about our weather records

Advertising

Jhunjhunu Weather History for the Previous 24 Hours

 ConditionsComfort  
Time TempWeatherWind HumidityBarometerVisibility
8:30 AM
Sun, Feb 14
63 °FHaze.2 mph49%30.07 "Hg1 mi
8:00 AM59 °FHaze.3 mph55%30.07 "Hg1 mi
6:00 AM59 °FHaze.5 mph55%30.01 "Hg1 mi
2:00 AM63 °FHaze.7 mph49%30.04 "Hg1 mi
1:00 AM61 °FHaze.7 mph55%30.04 "Hg1 mi
12:00 AM63 °FHaze.8 mph49%30.04 "Hg1 mi
11:00 PM
Sat, Feb 13
63 °FHaze.8 mph49%30.04 "Hg2 mi
10:00 PM64 °FHaze.9 mph49%30.04 "Hg2 mi
9:00 PM66 °FHaze.10 mph49%30.04 "Hg2 mi
8:00 PM68 °FHaze.10 mph46%30.01 "Hg2 mi
7:00 PM72 °FHaze.2 mph23%29.98 "Hg2 mi
6:00 PM73 °FHaze.5 mph20%29.95 "Hg2 mi
5:30 PM75 °FHaze.8 mph15%29.95 "Hg3 mi
5:00 PM77 °FHaze.8 mph13%29.95 "Hg2 mi
4:00 PM77 °FHaze.8 mph17%29.95 "Hg2 mi
3:30 PM77 °FHaze.8 mph18%29.95 "Hg2 mi
3:00 PM75 °FHaze.9 mph18%29.95 "Hg2 mi
2:00 PM75 °FHaze.8 mph19%29.95 "Hg1 mi
12:30 PM73 °FHaze.6 mph23%29.98 "Hg1 mi
12:00 PM73 °FHaze.6 mph25%29.98 "Hg1 mi
11:00 AM72 °FHaze.5 mph29%30.01 "Hg1 mi
10:00 AM68 °FHaze.8 mph33%30.01 "Hg1 mi
9:00 AM66 °FHaze.1 mph49%29.98 "Hg1 mi
Weather by CustomWeather, © 2016

See weather overviewHow to use our weather pages